Wind_Speed
10 6 6 8 9 10 13 11 8 8 11 15 16 16 17 17 19 18 15 12 12 14 12 10 11 12 14 14 15 15 15 14 14 15 15 13 12 12 12 12 11 9 10 11 11 11 11 10 10 12 12 10 11 12 16 17 18 18 17 16 13 10 8 6 6 7 8 8 9 9 9 9 8 6 6 6 8 9 10 9 10 10 10 10 11
7 5 5 6 7 10 13 12 11 13 18 20 19 19 19 18 21 21 19 15 15 16 14 12 13 14 14 14 15 15 13 13 13 14 14 12 12 12 12 12 11 9 10 11 12 13 12 12 12 13 13 13 15 16 17 17 18 18 17 16 14 12 9 5 4 5 6 7 8 8 9 8 7 6 6 6 6 7 8 8 9 9 10 12 13
8 7 6 5 5 8 12 14 16 19 24 26 21 19 22 21 20 22 22 18 17 18 18 17 16 14 13 13 12 11 10 10 12 12 11 11 11 11 11 11 11 11 12 12 13 13 13 13 13 14 15 16 16 16 17 17 18 18 18 17 15 14 8 5 4 4 5 7 7 7 8 6 6 7 7 6 5 6 8 9 10 12 13 15 16
9 8 8 6 4 4 9 14 18 22 25 26 21 16 21 23 20 21 24 22 19 18 17 16 14 12 12 11 11 9 8 8 9 8 8 9 11 11 11 11 12 13 13 14 14 14 14 15 15 14 14 16 17 17 18 18 19 19 18 17 16 12 7 5 5 5 6 8 7 6 6 4 6 6 5 6 6 8 9 11 13 14 16 16 17
11 11 11 10 9 7 4 3 9 14 18 20 18 14 16 20 21 21 24 24 19 16 13 10 10 10 11 10 9 8 7 6 7 7 7 8 10 11 12 13 13 14 14 15 15 15 15 16 16 14 14 15 17 18 19 18 18 18 17 16 13 8 5 5 6 7 7 8 7 7 6 4 5 5 5 6 8 10 12 15 16 16 17 17 18
13 13 13 13 13 13 13 12 8 4 6 10 12 11 11 14 18 19 22 23 19 13 10 7 6 6 6 6 6 6 6 7 8 9 9 10 11 12 13 15 15 14 14 15 15 15 16 16 15 14 14 14 16 16 17 17 16 17 16 13 9 5 5 6 9 9 9 8 7 7 6 4 5 6 6 8 9 12 15 18 18 17 17 17 17
15 14 14 14 14 14 15 16 16 14 11 7 5 6 8 10 12 13 14 13 12 9 6 4 4 4 4 3 4 4 6 9 12 12 11 11 12 14 15 16 16 15 14 14 15 15 16 15 14 14 14 14 14 14 15 15 16 17 15 11 7 5 7 8 10 10 9 8 7 7 6 5 7 8 8 9 11 15 19 19 18 16 16 17 17
17 16 16 15 15 15 15 16 17 18 17 16 13 10 7 6 5 6 5 4 4 2 0 2 4 3 1 3 5 6 10 11 12 13 12 11 13 14 15 16 17 16 14 14 15 17 17 15 14 15 16 14 14 15 15 15 16 16 13 10 8 8 8 9 9 9 10 9 8 8 7 7 8 9 10 11 15 19 20 18 15 15 15 16 17
18 16 16 15 15 14 14 15 16 17 17 17 17 16 14 13 10 9 7 6 6 6 6 6 7 4 4 5 7 9 10 10 10 10 11 11 12 13 14 14 15 15 14 14 16 17 17 14 15 17 17 15 16 16 16 15 14 14 12 9 9 8 8 8 9 10 11 10 10 9 8 8 10 11 13 14 17 18 16 14 13 14 15 16 16
17 16 15 14 13 12 12 13 14 15 15 15 15 15 14 13 12 11 10 10 9 8 5 4 4 5 6 6 8 9 9 10 9 7 8 9 9 11 13 14 14 14 13 16 17 18 18 16 16 16 15 15 16 16 15 15 13 12 11 9 8 8 8 9 11 11 10 10 11 10 8 9 11 13 14 15 16 14 12 12 14 14 15 15 14
15 15 13 12 11 11 12 13 13 13 13 13 14 14 13 12 10 10 9 9 8 6 3 2 4 5 5 6 8 9 9 9 7 6 8 8 9 13 15 16 16 16 14 16 17 17 16 14 15 15 16 16 17 17 16 14 11 11 10 9 9 9 10 11 12 10 9 10 12 11 9 10 12 13 14 15 14 12 12 13 14 14 13 12 11
13 13 12 11 11 11 12 12 13 12 12 12 13 13 13 11 10 9 9 9 8 6 1 2 3 6 7 8 9 10 9 8 8 9 9 10 14 17 17 17 17 17 16 16 15 15 16 17 18 19 19 19 19 18 15 11 9 9 9 9 10 11 10 10 11 9 8 9 10 11 11 13 15 15 15 14 13 12 13 13 12 11 10 9 9
12 12 12 11 11 11 11 12 11 11 11 11 11 11 11 10 9 8 8 8 8 6 1 3 4 7 7 7 9 9 9 9 10 10 12 15 18 18 17 17 16 16 16 16 17 18 20 22 23 22 20 19 17 15 12 9 9 9 9 9 9 9 9 10 10 9 9 8 9 12 13 14 14 13 12 12 11 11 11 10 9 8 8 9 9
11 12 12 12 12 11 11 11 11 11 10 10 10 9 10 9 8 7 7 7 7 6 2 4 5 6 6 7 7 7 9 11 11 13 16 18 18 17 16 16 16 16 17 17 18 19 21 21 21 19 18 16 14 12 9 7 8 9 8 8 8 7 8 10 10 9 10 11 12 11 10 10 10 10 10 10 9 8 7 7 8 8 9 10 11
12 13 13 13 12 10 11 10 10 10 10 10 10 10 10 9 8 7 6 5 5 4 3 5 6 6 6 6 6 6 9 11 12 15 16 15 15 16 16 16 17 17 17 18 18 18 19 18 17 16 15 13 12 10 8 8 9 9 8 8 8 6 6 8 8 9 11 12 12 9 9 9 9 9 7 6 5 5 6 7 8 9 9 10 11
13 14 14 13 13 12 11 9 8 9 10 10 11 10 10 9 9 8 7 6 5 4 4 4 5 6 5 5 7 8 9 11 13 13 12 14 16 17 17 18 18 18 18 17 17 17 17 16 15 14 13 12 11 9 7 8 8 8 7 7 6 3 4 7 8 9 10 11 11 10 11 9 6 5 4 4 5 5 7 7 8 9 9 10 10
14 14 13 13 13 12 11 9 8 9 11 12 11 10 10 10 10 9 8 7 6 4 3 4 4 4 5 6 7 8 9 10 10 10 12 16 17 18 18 17 17 17 17 16 17 16 16 15 14 13 12 11 9 7 6 7 6 6 6 5 4 3 4 6 7 8 10 11 10 10 8 5 4 4 4 4 5 6 7 7 8 8 8 9 10
15 14 14 14 14 12 11 10 10 11 12 12 12 11 11 11 11 10 9 8 7 4 2 1 2 2 3 6 7 8 8 8 10 12 14 16 16 16 15 15 15 15 15 15 15 15 14 13 13 11 9 7 6 6 6 6 5 6 5 4 3 2 3 5 7 8 9 8 5 4 3 4 4 4 4 5 6 7 7 7 7 8 9 10 11
15 14 15 15 15 13 13 13 14 14 14 14 14 12 11 11 12 11 10 9 8 6 4 3 3 1 2 4 5 7 8 8 9 11 12 12 12 12 12 13 13 12 12 11 11 10 9 9 7 6 4 4 5 6 6 6 5 5 4 2 1 2 4 6 7 6 5 4 3 3 3 3 3 3 4 5 6 6 7 7 8 9 10 11 11
15 15 15 16 16 16 16 17 17 17 16 16 16 15 13 12 12 13 12 10 8 8 7 6 6 5 2 2 4 5 6 6 7 8 8 9 9 10 10 10 8 7 5 4 2 1 1 2 3 5 7 7 7 7 6 6 5 4 2 1 2 4 5 5 4 5 5 5 4 3 2 2 3 3 4 5 6 6 7 8 9 10 11 11 12
15 16 16 17 17 17 18 18 18 19 18 18 18 16 14 13 13 13 12 10 9 9 9 8 8 6 4 4 5 5 5 5 5 6 6 7 8 8 7 5 4 5 5 6 7 7 7 8 8 9 9 10 10 9 7 6 4 2 1 2 2 2 4 7 7 6 4 3 2 2 3 3 4 5 5 6 7 7 8 9 9 10 11 12 12
17 17 18 18 18 18 18 19 19 19 19 18 18 17 15 13 13 13 11 10 10 9 9 8 8 7 7 7 8 8 8 7 6 6 7 8 8 7 6 8 9 11 12 11 11 12 11 11 11 11 11 11 10 8 6 4 2 1 2 3 6 8 9 7 5 3 2 3 4 4 5 5 6 6 7 8 8 9 9 10 10 10 10 11 12
18 19 19 19 19 18 19 19 19 19 19 18 18 17 16 14 14 13 11 11 10 10 9 9 9 9 10 10 10 10 11 11 10 9 9 9 10 9 10 11 13 14 14 13 12 12 12 12 12 12 11 11 9 8 6 6 6 8 10 11 10 9 7 6 4 4 5 6 6 6 7 7 7 8 8 9 10 10 11 10 10 10 9 10 11
19 20 20 20 20 19 19 19 19 19 19 18 18 17 16 14 14 14 12 12 11 11 11 11 11 12 13 13 12 12 12 13 13 12 12 12 13 13 14 14 14 14 13 12 11 11 12 13 13 13 13 13 13 13 13 13 13 13 13 11 9 8 7 6 6 7 7 8 8 7 8 8 8 9 10 10 10 10 10 10 10 9 10 10 12
20 20 20 21 21 20 20 20 20 19 19 18 18 17 16 15 15 14 14 13 13 13 13 13 13 13 14 15 15 14 14 14 14 14 14 15 16 15 15 15 14 13 13 13 13 13 15 15 15 16 17 17 18 17 17 15 14 13 12 11 10 10 9 9 10 10 10 9 9 9 9 10 10 10 10 10 10 10 10 10 10 10 10 11 12
20 20 21 21 22 21 21 21 21 20 19 18 18 17 17 16 16 16 15 15 15 15 15 15 15 15 16 17 17 17 16 15 15 15 15 16 17 16 16 16 15 15 15 17 17 18 19 20 20 20 20 20 19 18 16 15 15 14 13 12 12 12 11 11 13 14 13 13 12 12 12 11 11 10 10 10 9 9 10 10 10 10 10 10 11
20 20 21 22 22 23 23 23 22 21 20 19 19 18 18 17 17 17 17 17 17 17 16 17 17 18 19 19 19 18 18 17 17 16 16 17 17 17 16 16 16 17 18 20 21 21 22 23 22 21 20 20 19 18 17 17 17 16 14 14 14 11 10 12 14 15 16 16 15 14 12 11 10 10 9 9 9 10 10 10 10 9 9 9 11
19 20 21 22 23 23 23 24 24 22 21 20 20 19 19 19 18 18 18 18 18 18 18 18 18 18 19 20 20 20 19 19 18 17 17 17 17 17 17 17 17 17 19 21 22 23 23 23 22 21 21 21 20 19 18 18 17 17 16 16 14 11 11 13 14 16 16 16 15 13 12 11 11 11 11 11 11 11 12 11 10 9 9 10 11
19 21 22 22 23 23 23 24 25 24 22 22 21 21 20 20 20 19 19 19 19 19 19 18 18 19 19 20 21 21 20 19 18 18 17 17 17 17 17 18 18 19 20 21 22 22 22 22 22 22 22 21 21 20 19 19 19 19 19 17 15 14 13 14 15 15 15 14 14 13 13 12 11 11 12 12 13 13 13 13 11 10 9 10 11
20 21 22 23 23 23 23 25 26 25 24 23 22 22 22 22 21 20 20 19 19 19 19 19 19 19 19 20 21 20 20 19 18 18 18 18 18 18 18 19 20 20 21 22 22 22 22 22 22 22 22 21 20 21 20 20 20 20 20 18 17 17 16 15 15 14 13 13 13 13 13 13 12 12 13 13 13 14 14 14 12 10 10 11 11
20 20 22 24 24 24 24 25 26 26 25 24 24 24 24 23 23 22 21 20 20 19 19 19 19 19 18 19 20 20 20 20 19 19 19 19 19 19 20 20 21 22 22 22 23 22 22 21 21 21 22 21 20 20 20 20 20 20 19 18 17 17 17 16 15 13 12 12 12 13 13 13 13 14 14 14 13 14 14 13 12 10 11 12 11
20 21 22 24 25 25 24 25 26 26 25 25 25 25 25 25 24 23 22 21 21 20 20 19 19 19 18 19 20 20 20 20 21 20 20 20 20 21 21 22 22 22 23 23 23 23 22 21 20 21 21 20 19 18 18 18 19 19 19 18 18 17 16 16 16 15 13 13 13 13 13 14 15 15 15 15 13 13 14 13 11 10 11 11 11
21 21 22 24 25 25 25 25 26 26 26 25 25 26 26 26 25 24 24 23 22 21 21 20 20 19 19 19 20 20 20 21 21 21 21 21 21 21 22 22 22 22 23 23 23 23 22 21 20 19 19 19 18 17 16 16 16 17 19 20 19 18 17 16 17 17 16 15 14 14 14 14 16 16 15 14 13 13 13 12 11 10 10 10 10
21 22 23 24 25 25 25 25 26 26 26 26 26 26 27 26 26 25 25 24 24 23 22 21 21 20 19 19 20 19 19 20 20 21 21 22 22 22 22 23 23 24 23 23 23 22 21 21 20 19 18 18 18 16 15 14 14 16 18 19 19 19 18 17 17 18 18 17 16 15 14 15 16 16 14 12 12 12 12 11 10 10 10 10 10
22 22 23 24 25 25 25 25 26 26 26 26 26 27 27 27 27 26 26 25 25 24 23 21 21 21 20 20 19 19 18 19 20 20 20 22 23 23 23 24 24 24 24 24 23 21 20 20 20 19 18 17 17 16 15 15 15 17 18 18 18 18 19 18 17 17 18 17 17 17 15 14 15 14 13 10 10 10 10 10 10 10 10 10 11
22 23 23 23 24 25 25 25 26 26 26 27 27 27 27 27 28 28 27 26 25 25 24 23 22 21 20 20 19 19 19 19 19 19 19 21 22 23 23 23 23 23 23 22 21 20 19 19 18 17 17 17 17 17 16 16 18 19 19 19 19 19 19 19 18 17 18 18 17 17 15 14 14 13 12 10 9 9 10 10 10 11 11 12 12
23 24 24 24 24 25 25 24 25 26 26 27 27 28 27 28 28 28 28 28 27 26 26 25 23 22 21 20 19 19 19 19 19 18 18 19 20 21 22 22 22 21 21 20 18 18 17 16 15 16 16 17 17 17 18 19 20 21 21 22 22 21 21 20 19 18 18 17 18 18 18 16 14 14 13 12 11 11 11 11 12 13 13 13 14
24 24 25 25 25 25 25 25 25 26 26 26 27 28 28 28 29 29 29 29 29 28 28 27 26 24 22 21 20 19 18 18 18 18 17 17 17 19 20 21 21 21 19 18 16 15 15 14 14 14 15 16 17 18 19 20 21 22 23 23 23 23 23 22 21 19 19 18 19 20 20 18 16 16 15 14 13 13 13 13 14 15 15 16 17
24 25 25 25 25 25 26 25 25 27 27 27 26 27 27 28 28 29 30 30 30 29 29 29 28 26 24 22 21 20 18 17 17 17 17 17 17 17 18 19 19 19 18 17 16 16 15 15 15 15 15 15 17 18 19 20 21 22 22 22 23 23 23 22 22 21 21 21 20 21 21 20 18 17 17 16 16 16 15 16 17 17 17 19 20
23 25 25 25 25 26 26 26 26 26 27 27 27 27 27 27 28 29 30 30 30 30 30 31 30 29 27 25 23 21 20 18 16 16 16 16 16 17 17 17 17 17 17 17 17 17 17 17 16 16 16 16 17 19 21 22 22 22 21 21 22 23 23 22 22 22 22 22 21 21 21 21 20 19 19 19 19 19 19 19 19 20 21 22 23
23 24 25 25 25 26 26 26 26 26 26 27 28 28 28 28 28 29 30 31 31 31 31 31 31 30 29 28 26 24 22 20 18 18 17 16 16 17 17 17 17 17 17 17 16 16 16 16 16 16 17 18 20 21 22 23 22 22 22 22 22 23 23 23 23 23 23 22 22 22 22 22 22 21 21 22 22 22 22 22 22 23 24 25 25
22 24 24 25 25 25 26 26 26 26 26 26 28 28 29 29 29 29 30 31 32 32 31 31 31 31 31 30 28 27 25 23 22 20 19 18 17 17 17 17 17 17 16 16 16 16 16 16 17 17 18 20 20 21 22 22 22 23 23 24 24 24 24 25 25 25 25 25 24 24 24 24 24 24 24 25 25 25 25 25 26 26 27 27 27
20 22 23 24 25 25 25 26 26 26 26 26 27 28 29 29 29 29 30 32 33 33 32 32 31 31 31 31 30 30 29 27 25 23 22 21 20 19 18 18 18 18 17 16 16 17 18 20 21 21 21 21 22 22 23 24 24 24 25 25 25 25 26 27 27 28 28 28 28 28 28 28 28 28 28 28 28 29 29 29 29 29 29 30 30
17 19 20 22 23 24 25 26 26 26 26 26 27 28 29 29 29 30 31 32 33 33 33 33 33 32 32 32 31 31 31 30 28 27 26 24 23 21 20 20 19 19 19 19 18 19 21 23 24 24 23 23 24 26 26 26 26 26 26 26 27 28 29 30 30 31 31 32 32 32 32 32 32 32 32 32 33 33 33 33 33 33 33 33 33
15 17 18 19 21 22 23 24 25 25 25 25 26 27 28 29 29 30 30 31 32 33 34 34 34 34 34 33 33 32 32 31 30 29 28 27 26 24 23 22 21 20 20 21 22 23 24 25 24 24 23 24 25 26 27 27 28 27 27 28 29 30 32 33 33 34 35 36 36 37 38 38 38 38 38 38 38 38 38 39 39 39 39 39 39
13 15 16 17 19 20 22 23 24 24 24 25 25 25 26 28 29 29 30 30 31 32 33 34 34 34 34 35 35 34 33 32 31 30 30 29 28 27 26 24 23 22 22 23 24 24 24 24 24 24 24 24 26 27 28 29 29 28 29 30 32 33 35 36 37 38 39 40 41 41 42 43 44 44 44 45 45 45 45 45 46 46 46 46 46
11 13 14 16 17 18 20 21 22 22 23 23 23 23 24 26 27 28 29 30 30 31 32 33 34 34 34 35 35 35 35 34 33 32 31 30 29 28 27 25 25 24 24 25 25 25 24 23 24 26 26 27 28 29 29 30 30 30 31 32 34 36 37 39 40 40 42 43 44 45 46 47 48 49 49 50 50 50 51 51 51 51 52 51 51
9 10 12 14 16 17 18 18 19 20 21 21 22 22 22 23 24 26 27 28 29 30 31 32 32 33 34 34 35 35 35 35 35 34 33 32 31 30 28 26 25 25 25 25 25 25 24 23 25 26 28 28 29 29 30 30 30 31 32 34 36 37 39 40 41 42 43 45 46 47 48 49 50 51 52 52 52 53 53 53 54 54 54 54 54
7 9 10 12 14 16 17 17 18 19 19 20 20 21 21 22 23 23 24 26 27 28 30 30 31 32 33 34 35 35 35 35 35 35 34 34 33 32 30 28 25 24 24 24 24 24 24 23 25 26 27 28 28 29 29 29 30 31 33 35 36 38 39 40 41 42 43 44 45 46 47 48 49 50 51 51 52 52 53 53 53 53 53 53 53
5 7 8 10 12 14 16 17 17 18 18 19 20 20 21 21 21 22 23 23 24 26 27 28 29 30 31 33 34 34 35 35 35 35 35 35 34 33 32 30 28 26 24 24 24 24 24 23 23 24 26 26 27 27 28 28 29 31 33 34 36 37 38 39 40 41 42 42 43 44 45 46 47 48 48 49 50 50 51 51 52 52 52 52 52
4 5 7 8 10 12 13 15 16 16 17 18 19 19 20 21 21 21 22 22 23 24 25 26 27 28 29 31 32 33 33 34 35 35 35 35 35 34 33 32 30 29 27 26 26 25 24 23 23 24 25 25 25 26 27 28 29 31 32 33 34 35 36 36 37 38 39 39 40 41 43 44 44 45 46 46 47 48 48 49 49 49 50 50 50
Wind_Direction
192 212 184 191 197 195 216 229 235 229 238 250 252 249 244 228 216 214 224 240 248 267 284 278 280 287 293 301 307 311 304 290 282 284 290 297 291 278 275 279 284 285 292 297 299 306 309 307 298 292 290 285 279 287 310 318 323 324 322 321 316 314 310 307 327 326 321 331 343 348 345 348 351 339 328 312 308 311 315 316 312 307 304 305 303
144 143 149 183 205 219 230 242 246 237 245 258 261 254 249 235 224 225 232 237 244 269 292 293 295 300 305 309 312 313 300 285 281 283 289 293 279 269 273 278 282 285 289 294 302 305 305 306 299 291 286 285 284 290 306 314 322 322 319 316 310 312 305 293 313 323 322 330 337 343 339 343 350 347 347 342 336 331 325 323 318 309 304 302 302
113 114 118 146 188 222 229 235 239 237 244 257 263 253 247 240 232 233 236 238 246 265 280 287 295 305 313 316 315 313 299 286 285 287 290 283 269 270 283 287 290 293 296 300 306 305 304 306 301 293 288 288 288 292 303 311 318 319 319 316 312 312 297 278 297 313 317 317 321 329 332 340 351 350 350 349 346 336 326 323 318 310 306 302 302
103 102 104 113 137 199 224 230 236 238 240 249 256 247 239 237 236 238 238 244 256 267 276 284 295 311 319 314 310 309 303 294 290 295 294 276 269 278 292 297 298 298 300 303 307 304 302 305 304 299 293 289 287 294 303 309 314 316 319 317 317 316 285 274 294 301 299 298 303 311 318 337 347 344 346 342 332 327 323 322 319 314 310 306 304
95 93 97 95 86 82 95 194 224 232 234 239 245 240 232 231 233 237 242 253 268 278 285 292 302 313 316 310 310 311 306 295 294 302 296 286 284 287 293 297 298 299 301 304 305 304 304 309 307 302 297 290 288 295 300 305 309 313 318 317 322 318 281 287 296 298 295 293 297 299 305 327 334 323 323 316 311 317 320 321 319 315 311 308 307
91 91 91 87 78 70 67 69 80 120 201 220 229 229 226 228 232 238 244 253 266 279 293 302 315 330 336 327 328 320 298 287 292 296 294 298 301 297 293 294 294 296 298 300 302 301 303 307 306 301 298 294 292 295 297 301 304 309 314 315 319 304 284 300 303 302 294 289 290 291 294 300 301 297 295 295 302 312 316 317 315 311 309 308 307
89 89 87 82 76 71 69 68 70 75 84 111 161 195 212 222 230 234 239 248 259 275 292 309 346 17 33 347 325 305 279 281 283 284 288 294 296 293 291 291 291 291 291 294 295 294 297 300 301 300 298 296 295 295 295 296 297 306 312 309 304 284 287 301 305 305 295 289 289 285 279 277 277 279 281 289 304 312 313 313 311 309 308 307 306
90 88 86 80 76 72 72 72 73 74 76 81 89 101 123 149 172 188 199 214 232 242 147 70 63 62 75 266 269 264 266 273 277 287 300 297 287 285 288 291 292 292 290 291 290 291 294 293 294 297 297 297 296 294 291 289 293 304 310 303 296 285 291 298 301 306 300 292 293 288 273 273 278 276 278 291 308 313 313 313 312 312 309 307 304
91 87 83 78 75 73 72 74 74 74 75 76 78 82 87 93 99 105 112 118 118 112 109 96 97 132 200 236 251 257 265 273 286 304 313 309 300 297 299 301 301 299 289 280 284 290 290 287 291 296 296 291 287 288 290 293 295 303 306 296 296 286 281 293 303 309 308 301 304 300 281 276 283 281 280 294 309 314 315 314 313 312 309 305 302
92 87 81 75 71 69 67 68 69 69 69 70 70 70 73 77 82 89 93 98 99 97 101 114 133 173 208 235 253 261 271 288 302 305 299 299 300 302 304 303 299 297 287 280 284 289 288 288 290 290 288 285 283 286 292 299 296 296 300 290 299 295 276 290 304 312 318 315 308 301 297 293 287 281 284 299 310 315 316 313 311 310 306 303 302
91 85 77 71 69 69 67 65 64 63 63 63 64 63 63 66 74 86 90 93 93 84 97 187 184 202 224 238 253 262 275 293 297 280 277 280 290 299 299 297 292 289 285 284 289 289 285 280 280 281 286 291 293 295 297 298 290 288 294 286 296 298 286 289 297 312 323 311 300 294 296 294 289 291 298 306 310 312 313 311 310 308 306 306 310
83 78 72 69 70 72 69 65 61 58 58 58 61 58 55 57 67 80 81 83 88 92 107 264 213 227 235 232 245 258 269 273 262 266 280 287 301 308 305 303 300 293 285 280 281 276 271 271 281 290 295 298 298 298 296 291 282 281 281 280 287 292 290 288 294 312 309 290 287 289 292 293 301 310 312 310 308 309 312 313 314 313 315 319 322
71 68 64 61 59 57 52 48 46 45 45 47 50 47 43 47 62 73 72 71 73 88 137 286 251 246 244 241 251 256 262 258 255 278 295 298 306 309 305 305 304 299 292 284 277 270 270 275 285 292 296 297 295 297 293 277 269 271 274 277 281 284 284 284 293 304 292 282 287 293 300 306 314 319 316 310 308 313 319 322 323 325 329 328 324
61 56 50 46 41 37 33 30 27 25 24 28 31 28 29 37 51 57 57 61 60 81 159 255 263 265 261 270 274 255 253 251 263 292 298 300 304 306 305 302 300 297 294 290 284 279 278 279 284 288 291 291 289 294 287 261 257 264 274 280 277 271 271 273 279 281 283 298 307 307 315 321 324 322 315 311 316 328 335 334 332 332 330 326 322
52 46 41 37 34 30 27 22 13 9 11 16 18 18 23 31 37 40 45 53 59 92 174 242 270 280 276 279 273 254 252 251 276 296 297 300 304 306 305 301 299 297 295 293 290 287 285 286 288 288 287 285 284 286 277 252 251 262 267 276 281 272 266 270 272 277 290 308 315 319 327 326 324 322 320 329 348 353 342 335 332 330 328 324 320
49 45 41 36 33 28 22 17 7 7 19 23 22 24 28 32 38 44 42 44 62 98 158 220 263 275 268 260 256 256 257 265 291 300 297 302 304 305 304 300 298 297 297 295 293 291 289 288 287 283 280 279 276 271 260 247 248 255 259 266 271 250 253 273 282 291 304 313 313 316 327 330 332 348 7 15 6 346 334 331 330 328 326 324 320
48 45 43 37 31 26 20 18 17 22 33 35 38 38 36 39 45 46 35 41 58 77 131 195 235 248 262 273 271 271 275 286 302 299 297 301 302 303 301 299 297 297 297 294 293 289 287 284 279 276 272 270 264 246 230 230 233 234 237 242 242 238 261 279 292 305 315 317 313 315 328 352 28 38 31 10 347 335 329 327 328 328 327 323 318
39 42 41 35 30 27 27 28 31 34 41 45 49 47 37 37 44 44 36 41 44 46 79 155 196 227 290 302 294 298 302 300 299 295 299 301 301 301 299 299 298 297 296 293 291 287 285 279 274 269 263 255 233 209 198 200 198 199 205 213 228 256 280 297 306 315 324 329 330 335 9 51 49 33 8 349 335 328 323 324 328 327 324 320 318
35 40 37 35 35 37 39 40 41 43 50 54 57 58 44 37 44 46 44 41 39 47 51 56 74 67 332 306 297 304 305 300 300 302 304 304 304 304 303 302 301 300 297 294 291 287 282 273 263 246 221 191 180 178 175 175 174 174 174 169 188 289 310 321 327 338 1 33 68 74 72 59 29 5 346 335 325 319 321 326 328 327 324 322 321
37 40 38 40 43 46 47 48 49 51 57 60 62 65 53 44 49 51 52 51 50 55 54 52 58 63 58 339 320 320 318 319 319 317 316 316 318 317 315 314 314 312 311 314 316 313 231 172 152 145 141 143 151 155 153 149 141 134 127 143 282 304 327 360 35 63 76 86 87 79 60 28 357 340 330 321 315 320 327 330 329 328 328 327 327
40 43 44 44 46 48 50 51 53 54 57 62 66 68 62 56 56 58 59 57 53 51 54 54 56 63 57 30 13 4 357 354 349 344 342 338 338 337 343 360 24 50 66 77 88 97 105 111 114 121 129 135 135 132 128 120 110 92 340 314 317 21 68 81 85 89 91 83 63 37 14 350 335 328 323 321 322 327 332 332 332 333 334 336 337
46 48 47 46 46 47 49 51 54 55 57 59 64 67 66 65 64 66 65 57 53 50 53 59 63 64 48 38 32 32 32 26 20 16 9 7 11 19 40 61 72 77 79 84 90 95 100 106 110 114 118 120 119 118 115 105 84 49 63 93 98 97 95 91 85 78 54 28 14 2 350 341 337 335 332 331 332 335 337 338 339 339 341 343 345
49 49 47 47 47 47 48 51 52 54 55 57 59 61 61 63 64 68 65 60 58 53 56 62 65 59 47 40 40 44 42 39 41 39 37 44 49 54 61 69 76 80 82 83 88 93 96 99 102 105 106 107 108 109 104 104 101 102 102 100 97 94 87 77 62 36 17 10 3 356 351 348 345 342 340 340 342 342 342 341 340 340 343 347 351
50 49 49 49 48 47 48 50 52 53 54 55 56 56 56 58 61 63 63 62 59 55 56 57 58 55 49 44 47 51 47 48 53 53 58 64 62 63 67 70 74 79 83 82 85 90 92 92 93 96 99 101 103 103 104 105 105 102 98 93 86 78 67 54 37 22 18 12 5 360 357 355 354 352 351 350 349 347 344 341 339 341 345 350 355
51 51 50 50 50 49 48 49 51 52 52 53 54 54 54 54 56 58 57 58 57 55 54 55 57 57 52 50 54 54 51 54 57 60 66 66 65 67 70 71 71 76 81 82 83 86 89 90 92 95 98 99 100 101 102 100 97 91 85 80 72 62 53 43 37 32 27 21 16 14 13 11 7 4 1 357 353 348 343 342 343 346 349 352 356
52 51 50 51 51 49 49 49 51 52 52 53 54 53 51 52 52 53 53 53 53 53 54 56 59 59 56 54 56 54 53 59 61 65 66 65 68 71 73 74 72 75 79 82 85 87 91 93 96 97 98 98 97 95 92 88 83 79 75 71 65 57 49 46 45 42 38 36 34 32 29 23 17 12 7 1 355 350 349 348 349 350 351 355 359
51 50 49 50 50 50 50 49 49 51 52 53 54 53 51 51 51 50 50 51 52 52 53 57 60 59 57 57 58 57 57 61 65 66 66 67 71 75 76 75 75 80 83 86 89 92 94 96 97 97 96 93 89 85 81 79 77 74 72 69 65 59 51 50 50 47 44 43 41 39 37 32 26 20 13 7 3 1 358 354 352 354 357 1 4
50 49 48 49 50 51 50 48 48 49 51 53 53 52 52 51 50 50 49 50 51 51 52 56 58 58 58 57 59 60 60 62 64 65 66 68 72 76 77 76 79 83 85 89 92 94 94 95 95 93 90 86 83 80 76 76 76 75 72 67 64 59 54 54 52 49 46 44 43 42 40 36 30 25 20 18 15 12 6 1 358 1 6 6 7
49 48 48 48 50 50 50 47 46 48 50 52 52 51 51 51 50 50 50 51 51 51 52 54 57 57 58 57 59 61 62 63 65 66 67 68 71 74 75 76 79 82 85 88 90 91 92 91 91 89 87 84 80 77 74 74 76 75 71 66 62 58 56 53 52 48 45 44 43 40 37 32 27 23 21 20 20 18 13 8 5 8 12 8 11
49 49 48 49 50 50 49 47 46 48 50 51 52 50 50 50 51 51 52 52 52 52 52 54 57 58 59 60 61 63 64 65 68 69 69 68 68 71 73 76 79 82 84 85 87 88 89 89 89 89 87 83 79 76 73 72 73 73 70 65 61 58 56 54 51 47 44 43 42 39 35 30 25 22 20 17 17 17 15 13 12 15 15 11 17
50 49 50 51 50 50 50 49 48 49 50 51 51 50 50 50 51 52 52 53 53 52 53 56 59 60 62 64 64 66 68 69 72 73 71 68 65 66 71 74 77 80 82 83 85 87 88 89 90 90 87 83 78 75 73 69 68 67 65 63 59 57 54 52 48 42 36 35 36 35 31 27 23 21 18 15 13 14 15 16 18 20 17 15 22
52 51 52 53 52 51 51 50 49 50 51 52 52 50 50 50 51 52 53 54 54 53 54 57 61 63 65 66 67 70 73 73 75 75 73 70 67 66 68 71 75 78 80 82 84 86 87 87 88 89 87 83 78 72 69 66 62 60 60 59 57 54 50 48 44 39 31 25 25 25 26 26 23 20 19 17 13 13 16 20 25 26 20 21 29
53 53 53 55 53 51 51 51 50 50 52 53 53 53 52 52 51 51 51 53 55 55 55 58 61 64 66 66 69 73 75 75 76 76 75 72 70 70 71 72 74 77 79 81 83 84 85 85 85 85 84 82 77 71 65 61 59 57 55 55 55 52 48 44 41 38 33 27 24 21 23 28 25 21 21 20 16 13 18 24 30 30 27 31 41
54 54 54 55 53 51 52 52 52 51 52 54 54 55 55 55 53 52 51 53 55 55 56 59 61 63 65 66 68 72 76 76 77 77 77 74 73 75 77 76 76 78 80 81 82 82 83 85 84 84 84 81 78 73 65 59 58 56 52 50 49 46 45 42 38 34 31 29 29 26 28 29 26 23 21 22 17 15 20 27 34 36 37 46 56
56 56 56 55 53 52 53 53 53 53 54 55 55 56 57 57 56 55 54 53 55 56 57 59 61 62 64 66 68 71 76 79 80 78 78 77 75 76 79 80 79 79 80 81 82 82 83 84 85 86 86 83 79 73 64 57 56 54 49 45 43 40 39 38 36 32 29 32 34 32 32 30 27 25 26 25 18 18 26 34 41 46 52 62 67
58 58 57 56 54 54 55 55 55 54 55 55 55 56 58 58 58 57 57 56 57 58 59 61 62 64 66 68 71 74 77 80 81 80 80 79 78 78 79 81 81 79 80 81 82 84 85 84 85 85 84 82 77 71 64 57 53 51 48 44 40 38 37 38 37 33 33 38 39 36 35 33 30 31 35 35 30 33 41 47 53 60 67 73 74
60 60 59 58 57 57 57 57 56 56 56 56 55 56 57 58 58 57 58 58 58 58 60 61 64 66 69 71 73 77 80 81 82 82 83 83 82 81 81 81 80 80 80 81 82 83 83 83 83 81 79 75 69 65 61 57 53 49 47 45 42 40 39 39 41 39 37 39 40 38 36 35 32 33 37 40 42 47 53 58 65 72 77 79 78
62 62 61 61 60 60 60 59 57 57 56 56 55 55 57 57 56 56 56 57 58 58 58 60 62 65 68 71 73 76 81 84 85 83 82 82 83 83 82 81 80 81 81 82 81 80 81 83 83 80 74 68 63 61 59 55 49 45 44 44 43 42 40 39 41 41 38 38 38 35 34 34 34 35 39 43 48 54 61 67 74 79 82 83 82
63 63 63 63 62 63 63 60 58 57 56 55 55 55 56 56 56 54 54 55 57 57 58 58 61 64 66 68 70 73 78 83 84 82 79 78 79 82 84 83 80 79 79 78 77 78 80 81 80 77 71 66 64 61 57 51 45 42 43 44 43 42 40 39 40 41 39 38 36 33 32 36 39 42 46 51 57 61 67 74 79 83 85 85 84
64 64 64 64 64 64 64 62 60 58 56 55 54 54 54 55 55 54 54 55 56 57 58 58 59 62 64 66 67 70 73 77 78 78 77 75 75 78 81 82 80 78 77 75 75 75 75 74 73 70 66 63 62 60 57 52 48 46 45 45 43 41 39 39 41 43 42 41 38 36 37 41 46 50 54 59 64 69 73 78 82 85 86 86 85
65 64 63 63 63 63 63 62 60 59 57 55 54 54 53 54 54 53 54 55 56 57 58 58 59 60 62 63 64 65 67 70 71 73 74 74 74 75 77 78 78 78 77 76 74 72 69 66 65 64 62 61 62 61 59 56 52 48 46 46 45 43 42 42 45 46 46 46 45 45 45 48 53 58 62 66 70 74 77 81 83 85 86 86 85
66 65 64 63 62 62 63 62 60 59 57 55 55 54 54 54 54 54 54 54 56 57 58 58 58 59 60 62 62 62 64 66 67 68 70 72 74 75 75 75 76 76 76 75 74 71 67 64 64 66 66 65 64 62 60 58 55 50 49 50 50 49 48 48 49 50 51 52 53 54 55 58 62 65 68 72 74 78 80 82 84 85 85 85 85
67 65 64 62 61 61 61 62 61 60 58 57 55 55 55 55 55 55 54 55 55 56 57 58 58 59 59 61 61 61 61 63 64 66 67 70 72 74 74 73 72 71 73 75 76 73 69 69 70 71 71 70 68 64 62 60 57 56 56 57 57 56 56 56 56 57 57 59 61 62 64 66 69 71 73 76 78 80 82 83 84 84 85 85 85
68 65 64 64 62 62 61 62 62 61 60 59 58 57 57 58 57 57 56 56 56 55 56 57 58 59 60 60 61 61 60 61 61 62 64 66 69 72 73 72 70 70 71 74 77 77 75 75 77 77 75 73 68 65 63 63 62 62 63 64 64 64 64 64 64 65 65 66 68 69 70 72 74 76 78 79 81 82 83 84 85 85 86 86 86
72 70 67 66 65 64 62 62 63 63 62 61 61 59 59 60 60 59 59 58 58 57 56 57 58 59 60 61 61 61 61 61 61 62 62 64 67 69 71 71 71 71 70 73 78 82 82 81 80 78 75 70 66 65 65 66 67 68 69 71 72 72 73 73 73 73 74 74 75 76 77 79 80 81 82 83 84 85 86 87 87 88 88 88 89
74 75 73 70 68 67 65 63 63 62 62 62 62 62 61 61 61 61 61 61 60 60 59 58 59 59 60 61 61 62 62 62 62 63 64 65 66 68 70 70 71 73 74 76 80 82 83 82 79 75 72 68 68 69 69 71 73 75 76 78 80 80 81 81 80 81 81 81 82 82 83 84 85 85 86 87 88 88 89 90 90 91 91 91 91
72 76 77 74 71 69 67 64 63 61 61 61 62 63 62 62 61 62 62 63 62 62 62 61 61 60 60 61 61 62 62 63 63 64 65 66 68 70 71 72 73 75 79 80 79 78 78 78 77 73 72 72 73 73 74 76 79 82 84 86 86 87 87 87 86 86 86 86 86 87 87 87 88 88 89 90 90 91 91 92 92 93 93 93 93
70 72 75 76 74 71 69 66 63 61 60 61 62 63 63 62 61 61 61 62 63 63 64 63 63 62 61 61 61 61 62 63 64 65 66 67 68 70 73 75 77 80 81 80 78 76 75 75 75 74 74 75 77 77 79 81 85 89 92 92 92 92 91 90 90 89 89 88 88 88 89 89 89 90 90 91 91 92 92 92 93 93 93 94 94
72 69 69 74 74 73 71 69 66 65 64 62 62 62 62 61 61 61 61 61 62 63 63 63 63 63 62 61 60 61 61 62 63 64 65 66 68 70 72 76 79 81 81 79 78 78 78 76 74 74 74 76 78 81 84 87 92 96 98 97 96 95 94 93 92 91 91 90 90 89 89 89 90 90 90 91 91 91 92 92 92 92 92 92 92
85 73 67 67 72 72 72 72 70 70 68 66 65 64 62 61 61 61 60 60 60 61 61 61 62 62 63 62 61 60 60 61 61 62 63 65 66 68 70 73 76 78 77 77 78 79 79 77 74 73 74 76 80 85 89 93 99 102 102 100 99 97 96 95 94 93 92 92 91 90 90 90 90 90 90 90 90 90 90 90 90 90 90 90 89
109 89 75 66 66 67 69 72 72 73 72 70 68 66 65 63 62 61 60 60 60 60 61 61 61 61 61 63 62 61 60 60 60 61 61 62 63 65 66 69 71 73 74 76 77 78 78 77 76 76 77 78 82 89 94 100 105 106 104 102 100 99 98 96 95 94 93 92 92 91 91 90 90 90 89 89 89 89 89 88 88 88 87 87 86
Height
10944 10944 10944 10944 10943 10943 10943 10944 10944 10944 10945 10946 10947 10948 10948 10949 10949 10950 10951 10951 10951 10951 10951 10950 10950 10949 10949 10949 10949 10949 10950 10950 10949 10948 10947 10947 10947 10947 10946 10945 10945 10945 10945 10946 10946 10946 10947 10946 10945 10944 10944 10944 10944 10943 10943 10942 10941 10941 10940 10940 10940 10940 10940 10940 10939 10937 10934 10932 10930 10928 10927 10927 10927 10926 10926 10925 10925 10925 10924 10924 10924 10923 10923 10924 10923
10944 10944 10945 10945 10943 10943 10942 10942 10943 10944 10945 10945 10946 10947 10947 10948 10948 10949 10950 10951 10951 10951 10951 10950 10949 10948 10947 10947 10947 10947 10948 10948 10948 10947 10946 10946 10945 10945 10945 10944 10944 10944 10944 10944 10945 10945 10945 10945 10944 10943 10943 10942 10942 10942 10942 10941 10940 10939 10939 10938 10938 10938 10938 10938 10938 10937 10935 10933 10931 10929 10928 10928 10927 10926 10926 10926 10926 10926 10925 10924 10924 10924 10923 10923 10923
10944 10945 10946 10946 10946 10945 10944 10944 10944 10944 10944 10944 10945 10946 10946 10947 10948 10949 10949 10950 10951 10951 10951 10950 10949 10947 10946 10945 10945 10945 10946 10947 10947 10946 10945 10945 10944 10944 10944 10943 10943 10942 10942 10943 10943 10943 10943 10943 10942 10942 10942 10941 10941 10941 10940 10939 10939 10938 10937 10936 10936 10936 10936 10936 10936 10937 10936 10934 10932 10931 10930 10929 10928 10927 10926 10926 10926 10926 10926 10925 10925 10924 10923 10922 10921
10945 10946 10946 10947 10947 10946 10945 10945 10944 10943 10943 10943 10944 10945 10945 10946 10947 10948 10949 10949 10950 10951 10951 10950 10949 10947 10946 10944 10944 10944 10945 10946 10946 10946 10945 10944 10943 10943 10943 10942 10942 10941 10941 10941 10941 10941 10941 10941 10941 10940 10940 10940 10940 10939 10939 10938 10937 10936 10936 10935 10935 10934 10934 10934 10935 10935 10935 10934 10932 10931 10930 10929 10928 10926 10926 10926 10926 10926 10926 10925 10924 10923 10922 10921 10920
10945 10946 10947 10947 10946 10946 10945 10943 10942 10942 10942 10942 10943 10943 10944 10945 10946 10947 10948 10949 10949 10950 10950 10950 10948 10948 10946 10944 10944 10944 10944 10945 10945 10945 10945 10944 10943 10942 10941 10941 10940 10940 10939 10939 10939 10940 10940 10939 10939 10939 10939 10938 10938 10938 10937 10937 10936 10935 10934 10934 10933 10933 10933 10933 10933 10934 10933 10932 10931 10930 10929 10928 10927 10926 10926 10926 10926 10925 10925 10924 10923 10922 10921 10920 10919
10945 10946 10946 10947 10946 10945 10944 10943 10941 10941 10940 10941 10941 10942 10943 10944 10945 10947 10948 10948 10949 10949 10949 10948 10948 10948 10946 10944 10944 10944 10944 10944 10944 10944 10943 10943 10942 10941 10941 10940 10939 10938 10938 10937 10938 10938 10938 10938 10937 10937 10937 10937 10936 10936 10936 10935 10935 10934 10933 10933 10932 10932 10932 10932 10932 10932 10931 10931 10930 10930 10929 10928 10927 10927 10926 10926 10925 10925 10924 10923 10922 10921 10920 10919 10918
10946 10946 10946 10946 10946 10945 10944 10943 10942 10941 10941 10941 10941 10942 10942 10943 10945 10946 10946 10947 10948 10948 10948 10948 10948 10948 10947 10945 10945 10945 10944 10944 10943 10942 10942 10941 10941 10940 10939 10939 10938 10937 10936 10936 10936 10936 10936 10936 10936 10936 10935 10935 10935 10934 10934 10934 10933 10933 10932 10931 10931 10931 10931 10931 10930 10930 10930 10930 10929 10929 10928 10927 10927 10926 10926 10925 10925 10924 10923 10922 10921 10920 10919 10918 10917
10946 10947 10947 10946 10946 10946 10945 10945 10944 10943 10942 10942 10942 10942 10943 10943 10944 10945 10945 10946 10947 10947 10947 10947 10948 10949 10948 10946 10945 10945 10944 10943 10942 10941 10940 10940 10939 10939 10938 10937 10937 10936 10935 10934 10934 10934 10934 10935 10934 10934 10934 10934 10933 10933 10933 10932 10932 10931 10931 10930 10930 10930 10929 10929 10929 10929 10928 10928 10928 10928 10927 10926 10926 10926 10925 10924 10924 10923 10922 10921 10920 10919 10918 10917 10916
10947 10947 10947 10947 10948 10948 10947 10947 10946 10945 10944 10943 10943 10943 10943 10944 10944 10945 10945 10946 10947 10947 10947 10946 10947 10947 10947 10947 10946 10946 10944 10942 10941 10939 10939 10938 10938 10938 10937 10936 10935 10935 10934 10934 10933 10933 10933 10933 10933 10933 10933 10932 10932 10932 10931 10931 10931 10930 10929 10929 10928 10928 10928 10928 10927 10927 10927 10927 10927 10926 10926 10925 10925 10924 10924 10923 10922 10921 10920 10919 10918 10918 10917 10916 10915
10948 10948 10948 10948 10949 10949 10948 10948 10947 10946 10945 10945 10944 10944 10944 10944 10945 10945 10946 10947 10947 10947 10947 10946 10946 10946 10947 10948 10948 10946 10943 10941 10940 10939 10938 10938 10937 10937 10936 10935 10935 10934 10934 10933 10933 10932 10932 10932 10932 10931 10931 10931 10930 10930 10930 10929 10929 10929 10928 10928 10927 10927 10927 10926 10926 10926 10926 10926 10926 10925 10925 10924 10924 10923 10923 10922 10921 10920 10919 10918 10917 10916 10915 10914 10913
10949 10949 10949 10949 10949 10949 10949 10948 10947 10946 10946 10945 10945 10945 10945 10945 10945 10945 10946 10947 10948 10948 10946 10945 10946 10947 10947 10948 10947 10945 10942 10940 10939 10939 10938 10937 10937 10936 10935 10934 10934 10934 10933 10932 10932 10931 10931 10930 10930 10930 10929 10929 10929 10929 10929 10928 10928 10928 10927 10927 10926 10926 10926 10925 10925 10925 10925 10925 10925 10924 10924 10923 10923 10922 10921 10920 10919 10919 10918 10917 10915 10914 10913 10912 10911
10950 10950 10950 10950 10950 10950 10949 10948 10947 10947 10946 10946 10945 10945 10945 10944 10945 10945 10946 10948 10949 10948 10945 10944 10947 10947 10946 10946 10945 10943 10941 10940 10939 10938 10937 10936 10935 10934 10933 10933 10932 10932 10932 10931 10931 10930 10929 10929 10929 10928 10928 10927 10927 10927 10927 10927 10927 10927 10926 10926 10926 10925 10925 10924 10924 10924 10924 10924 10924 10923 10922 10922 10921 10920 10919 10918 10918 10917 10916 10915 10914 10913 10912 10911 10910
10951 10951 10951 10951 10950 10949 10949 10948 10947 10947 10946 10946 10946 10945 10945 10944 10944 10945 10946 10948 10949 10950 10946 10945 10947 10946 10945 10945 10943 10942 10940 10939 10938 10937 10936 10935 10934 10933 10932 10931 10931 10930 10930 10930 10929 10929 10928 10927 10927 10926 10926 10926 10926 10925 10925 10926 10926 10926 10925 10925 10925 10924 10924 10924 10924 10924 10923 10923 10922 10922 10921 10920 10919 10918 10918 10917 10917 10916 10915 10914 10913 10912 10911 10910 10909
10952 10952 10951 10950 10950 10949 10949 10948 10948 10947 10946 10946 10946 10945 10945 10944 10944 10945 10946 10948 10949 10950 10948 10944 10945 10945 10945 10943 10942 10941 10940 10939 10937 10936 10934 10933 10932 10932 10931 10930 10930 10929 10928 10928 10927 10927 10926 10926 10925 10925 10924 10924 10924 10924 10924 10924 10925 10924 10925 10924 10924 10924 10923 10923 10923 10923 10922 10921 10921 10920 10919 10919 10918 10917 10917 10916 10915 10914 10914 10913 10912 10911 10910 10909 10908
10952 10952 10951 10950 10950 10950 10949 10949 10948 10947 10947 10946 10946 10945 10944 10944 10945 10946 10946 10947 10949 10950 10949 10944 10944 10944 10943 10942 10941 10940 10939 10938 10936 10934 10932 10932 10931 10931 10930 10929 10929 10928 10927 10926 10925 10924 10924 10923 10923 10923 10923 10923 10923 10923 10923 10923 10923 10923 10923 10923 10923 10923 10922 10922 10922 10922 10921 10920 10920 10919 10918 10918 10917 10916 10916 10915 10914 10914 10913 10912 10911 10910 10909 10908 10908
10952 10952 10951 10951 10951 10950 10949 10949 10949 10948 10947 10947 10946 10945 10944 10944 10945 10946 10946 10946 10948 10950 10949 10946 10944 10942 10941 10941 10939 10938 10938 10936 10934 10932 10931 10931 10931 10930 10929 10928 10927 10926 10925 10924 10923 10922 10922 10921 10921 10921 10921 10921 10921 10922 10922 10922 10922 10922 10922 10922 10922 10922 10921 10921 10921 10920 10920 10919 10919 10918 10917 10917 10916 10915 10915 10914 10913 10913 10912 10911 10911 10910 10909 10908 10907
10953 10953 10953 10953 10952 10951 10950 10949 10949 10948 10947 10947 10946 10945 10943 10943 10945 10946 10946 10945 10946 10948 10949 10947 10944 10941 10939 10938 10937 10936 10935 10934 10933 10932 10931 10931 10930 10929 10928 10927 10926 10925 10923 10922 10921 10920 10920 10920 10920 10920 10920 10920 10920 10921 10921 10921 10921 10921 10921 10921 10921 10921 10921 10921 10920 10919 10919 10918 10917 10917 10917 10916 10915 10915 10914 10914 10913 10912 10912 10911 10910 10909 10908 10907 10906
10955 10955 10954 10953 10952 10951 10950 10949 10949 10948 10947 10947 10947 10945 10943 10943 10944 10945 10945 10944 10945 10947 10947 10947 10945 10942 10939 10937 10935 10935 10934 10934 10933 10933 10932 10931 10929 10928 10927 10926 10924 10923 10922 10921 10920 10919 10918 10918 10918 10918 10919 10919 10919 10920 10920 10920 10920 10920 10920 10921 10920 10921 10920 10920 10920 10919 10918 10918 10917 10917 10916 10916 10915 10915 10914 10913 10913 10912 10912 10911 10910 10909 10908 10907 10906
10956 10955 10955 10954 10953 10951 10950 10949 10948 10948 10948 10947 10947 10946 10943 10943 10944 10945 10945 10945 10946 10946 10946 10945 10945 10944 10942 10940 10938 10937 10936 10935 10934 10933 10931 10930 10929 10927 10926 10925 10923 10922 10921 10919 10918 10918 10917 10917 10917 10918 10918 10918 10919 10919 10919 10920 10920 10920 10920 10920 10921 10921 10920 10920 10919 10919 10918 10918 10917 10917 10916 10916 10915 10914 10914 10913 10913 10912 10911 10910 10910 10909 10908 10907 10905
10957 10956 10955 10954 10953 10951 10950 10949 10949 10949 10948 10948 10948 10946 10944 10944 10945 10945 10945 10946 10946 10945 10944 10943 10943 10943 10943 10942 10941 10938 10936 10935 10933 10932 10931 10929 10928 10926 10925 10923 10922 10921 10920 10919 10918 10918 10918 10917 10917 10917 10918 10918 10918 10919 10919 10920 10920 10920 10921 10921 10921 10921 10920 10920 10919 10919 10919 10918 10918 10917 10916 10916 10915 10914 10914 10913 10912 10912 10911 10910 10909 10908 10907 10906 10905
10958 10957 10956 10955 10953 10952 10950 10950 10949 10949 10949 10949 10949 10949 10948 10948 10947 10947 10946 10945 10945 10944 10943 10942 10942 10943 10943 10942 10940 10938 10936 10934 10933 10931 10930 10929 10927 10925 10924 10923 10922 10921 10920 10919 10919 10918 10918 10918 10918 10918 10918 10918 10919 10919 10920 10920 10921 10921 10921 10921 10921 10920 10920 10920 10920 10919 10919 10919 10918 10917 10917 10916 10915 10915 10914 10913 10913 10912 10911 10910 10909 10908 10907 10906 10905
10959 10958 10957 10955 10954 10952 10951 10951 10950 10950 10950 10949 10949 10950 10950 10950 10949 10948 10946 10944 10944 10944 10943 10942 10943 10943 10942 10940 10938 10936 10935 10933 10932 10931 10929 10928 10926 10925 10924 10923 10922 10921 10921 10920 10920 10919 10919 10919 10918 10919 10919 10919 10919 10920 10920 10921 10921 10922 10922 10921 10921 10921 10921 10920 10920 10920 10920 10919 10919 10918 10917 10917 10916 10915 10915 10914 10913 10912 10911 10910 10909 10908 10907 10906 10905
10960 10959 10958 10956 10955 10953 10952 10951 10951 10951 10951 10950 10950 10950 10950 10950 10949 10947 10946 10945 10945 10944 10943 10943 10943 10942 10940 10938 10937 10936 10934 10933 10932 10930 10929 10928 10927 10926 10924 10924 10923 10922 10922 10922 10921 10921 10920 10920 10920 10920 10920 10920 10920 10921 10921 10922 10922 10922 10922 10922 10922 10922 10921 10921 10921 10921 10921 10920 10920 10919 10918 10918 10917 10916 10915 10914 10913 10912 10911 10910 10909 10908 10907 10906 10904
10961 10960 10959 10957 10956 10954 10953 10953 10952 10952 10951 10951 10950 10950 10949 10949 10948 10948 10947 10946 10945 10944 10943 10942 10941 10940 10939 10938 10936 10935 10934 10933 10932 10931 10930 10929 10928 10927 10926 10925 10924 10924 10923 10923 10923 10922 10922 10922 10922 10922 10922 10922 10922 10922 10923 10923 10923 10923 10923 10923 10923 10923 10923 10923 10923 10922 10922 10921 10921 10920 10919 10919 10918 10916 10915 10914 10913 10911 10910 10910 10909 10908 10906 10905 10904
10963 10962 10960 10959 10957 10956 10955 10954 10953 10952 10952 10951 10950 10950 10949 10948 10948 10947 10946 10946 10945 10943 10943 10942 10941 10940 10939 10938 10937 10936 10935 10934 10933 10932 10931 10930 10929 10928 10927 10927 10926 10926 10925 10925 10924 10923 10923 10923 10923 10924 10924 10924 10924 10924 10925 10925 10925 10925 10925 10925 10925 10925 10924 10925 10924 10924 10923 10922 10922 10921 10920 10919 10918 10916 10915 10914 10912 10911 10910 10909 10908 10907 10906 10905 10904
10965 10963 10962 10960 10959 10957 10956 10955 10954 10953 10952 10951 10951 10950 10949 10948 10947 10947 10946 10945 10944 10943 10942 10941 10941 10940 10939 10938 10937 10936 10935 10934 10934 10933 10932 10931 10930 10930 10929 10929 10929 10928 10927 10926 10926 10925 10925 10925 10925 10926 10926 10927 10927 10927 10927 10927 10927 10927 10927 10927 10926 10926 10926 10926 10926 10925 10924 10924 10923 10922 10920 10919 10918 10916 10915 10914 10912 10911 10910 10909 10908 10907 10906 10905 10904
10966 10965 10964 10962 10961 10959 10958 10957 10955 10954 10953 10952 10951 10950 10949 10948 10947 10946 10945 10945 10944 10943 10942 10942 10941 10940 10939 10938 10937 10937 10936 10936 10935 10934 10934 10933 10932 10932 10932 10931 10931 10930 10930 10929 10928 10928 10927 10928 10928 10929 10929 10929 10929 10929 10929 10929 10929 10929 10929 10928 10928 10928 10928 10928 10927 10926 10925 10924 10923 10922 10921 10919 10918 10916 10915 10914 10912 10911 10910 10909 10907 10906 10905 10904 10903
10968 10967 10966 10964 10963 10961 10960 10959 10957 10956 10955 10953 10952 10951 10950 10949 10948 10946 10946 10945 10944 10944 10943 10942 10942 10941 10940 10939 10939 10938 10937 10937 10936 10936 10936 10935 10935 10934 10934 10934 10933 10932 10932 10931 10930 10930 10930 10930 10931 10931 10931 10931 10931 10931 10931 10931 10931 10931 10930 10930 10929 10929 10929 10929 10928 10927 10926 10925 10924 10923 10921 10920 10918 10917 10916 10914 10913 10911 10910 10909 10907 10906 10905 10904 10903
10970 10969 10968 10966 10965 10963 10962 10960 10959 10957 10956 10955 10954 10953 10951 10950 10949 10947 10946 10945 10944 10944 10943 10943 10942 10942 10941 10941 10940 10939 10939 10938 10938 10938 10938 10937 10937 10937 10936 10936 10935 10934 10934 10933 10933 10933 10933 10933 10933 10933 10934 10934 10934 10934 10934 10934 10934 10933 10932 10932 10931 10931 10931 10930 10929 10927 10927 10926 10925 10923 10922 10920 10919 10917 10916 10914 10913 10912 10910 10909 10908 10907 10906 10904 10903
10972 10971 10970 10968 10967 10965 10964 10962 10961 10959 10958 10956 10955 10954 10953 10952 10950 10949 10947 10946 10945 10945 10945 10944 10944 10943 10943 10942 10942 10941 10941 10940 10940 10940 10940 10940 10939 10939 10938 10938 10937 10936 10936 10935 10935 10935 10935 10935 10936 10936 10936 10937 10937 10937 10937 10937 10936 10935 10934 10934 10934 10933 10932 10931 10929 10928 10928 10926 10925 10924 10922 10921 10919 10918 10916 10915 10913 10912 10911 10909 10908 10907 10906 10905 10903
10974 10973 10972 10970 10969 10967 10966 10965 10963 10961 10960 10958 10957 10956 10954 10953 10952 10950 10949 10948 10948 10947 10946 10946 10945 10945 10945 10944 10944 10943 10943 10942 10942 10942 10942 10942 10941 10941 10940 10940 10939 10938 10938 10938 10937 10937 10938 10938 10938 10938 10938 10939 10939 10939 10940 10940 10939 10937 10937 10936 10935 10934 10933 10932 10930 10930 10928 10927 10925 10924 10923 10921 10920 10918 10917 10915 10914 10913 10911 10910 10908 10907 10906 10905 10903
10976 10975 10973 10972 10971 10970 10968 10967 10965 10963 10962 10960 10959 10957 10956 10955 10953 10952 10951 10950 10949 10949 10948 10947 10947 10946 10946 10946 10945 10945 10945 10944 10944 10944 10944 10944 10943 10943 10942 10942 10941 10941 10940 10940 10940 10940 10940 10941 10941 10941 10941 10941 10942 10942 10942 10942 10941 10940 10939 10938 10936 10935 10934 10932 10931 10931 10929 10928 10926 10924 10923 10921 10920 10918 10917 10916 10914 10913 10911 10910 10909 10907 10906 10905 10904
10978 10976 10975 10974 10973 10972 10971 10969 10968 10966 10964 10962 10961 10960 10958 10957 10955 10954 10952 10951 10950 10950 10949 10948 10948 10948 10947 10947 10947 10947 10946 10946 10946 10946 10946 10945 10945 10944 10944 10944 10943 10943 10943 10943 10943 10943 10943 10943 10943 10943 10943 10943 10943 10944 10944 10944 10943 10942 10940 10939 10937 10936 10935 10934 10933 10931 10930 10928 10927 10925 10923 10922 10920 10919 10917 10916 10915 10913 10911 10910 10909 10908 10907 10905 10904
10979 10978 10977 10976 10975 10974 10973 10972 10970 10968 10967 10965 10964 10962 10961 10959 10957 10956 10954 10953 10952 10951 10950 10949 10949 10949 10949 10948 10948 10948 10948 10948 10947 10947 10947 10947 10947 10946 10946 10946 10946 10946 10945 10945 10945 10945 10945 10946 10946 10946 10946 10946 10946 10946 10946 10945 10945 10943 10941 10940 10938 10937 10936 10935 10934 10932 10931 10929 10927 10925 10924 10922 10921 10919 10917 10916 10915 10913 10912 10910 10909 10908 10907 10906 10905
10981 10980 10979 10978 10977 10976 10975 10974 10972 10971 10969 10968 10966 10965 10963 10962 10960 10959 10957 10956 10954 10953 10952 10951 10951 10950 10950 10949 10949 10950 10950 10949 10949 10949 10949 10949 10949 10949 10948 10948 10948 10948 10948 10948 10948 10948 10948 10948 10948 10948 10949 10948 10948 10948 10947 10947 10946 10944 10943 10941 10940 10939 10937 10936 10934 10933 10932 10930 10928 10926 10924 10923 10921 10919 10918 10916 10915 10913 10911 10910 10909 10908 10907 10906 10905
10983 10982 10981 10980 10979 10978 10977 10976 10974 10973 10972 10970 10969 10967 10966 10965 10963 10962 10960 10959 10957 10956 10955 10954 10953 10952 10952 10952 10952 10952 10952 10951 10951 10951 10952 10952 10951 10951 10951 10951 10951 10951 10950 10951 10951 10951 10951 10951 10951 10951 10951 10951 10950 10949 10948 10948 10947 10946 10944 10943 10941 10940 10939 10937 10935 10934 10933 10931 10929 10927 10925 10923 10921 10919 10918 10916 10914 10913 10912 10910 10909 10908 10908 10907 10906
10985 10984 10983 10982 10981 10980 10979 10978 10977 10975 10974 10973 10971 10970 10969 10968 10966 10965 10964 10962 10961 10959 10958 10956 10955 10955 10955 10955 10954 10954 10954 10953 10953 10953 10954 10954 10954 10954 10953 10953 10953 10953 10953 10953 10953 10953 10953 10953 10953 10953 10953 10952 10952 10951 10950 10949 10949 10947 10946 10944 10943 10942 10940 10938 10937 10935 10934 10932 10930 10928 10925 10923 10922 10920 10918 10916 10914 10913 10912 10911 10910 10909 10908 10908 10907
10987 10987 10985 10985 10984 10983 10982 10980 10979 10978 10976 10975 10974 10973 10972 10971 10969 10968 10967 10965 10964 10962 10961 10959 10958 10958 10957 10957 10957 10957 10956 10956 10956 10956 10956 10956 10956 10956 10956 10956 10955 10955 10955 10955 10955 10955 10955 10955 10955 10955 10955 10954 10954 10953 10952 10951 10951 10949 10948 10946 10945 10943 10941 10940 10938 10937 10935 10933 10931 10929 10926 10924 10922 10920 10918 10917 10915 10914 10913 10912 10911 10910 10910 10909 10908
10990 10989 10988 10987 10986 10985 10984 10983 10982 10980 10979 10978 10977 10976 10975 10973 10972 10971 10969 10968 10966 10965 10964 10962 10961 10960 10960 10959 10959 10959 10959 10959 10959 10958 10958 10958 10958 10958 10958 10958 10958 10958 10957 10957 10957 10957 10957 10957 10957 10957 10956 10956 10956 10955 10954 10953 10952 10951 10950 10948 10947 10945 10943 10941 10939 10938 10936 10934 10932 10930 10927 10925 10923 10921 10919 10918 10916 10915 10914 10913 10912 10912 10911 10911 10910
10992 10991 10991 10990 10989 10988 10987 10985 10984 10983 10981 10980 10979 10978 10977 10976 10975 10973 10972 10970 10969 10968 10966 10965 10964 10963 10962 10962 10961 10961 10961 10961 10961 10960 10960 10960 10960 10960 10960 10960 10960 10960 10960 10959 10959 10959 10959 10959 10959 10958 10958 10958 10958 10957 10956 10954 10954 10953 10951 10950 10948 10946 10945 10943 10940 10938 10936 10935 10933 10931 10929 10927 10925 10923 10921 10919 10918 10917 10916 10915 10914 10913 10913 10913 10912
10994 10994 10993 10993 10992 10990 10989 10988 10987 10985 10984 10983 10982 10981 10980 10979 10977 10976 10975 10974 10972 10970 10969 10968 10967 10966 10965 10965 10964 10964 10963 10963 10963 10962 10962 10962 10961 10961 10961 10961 10961 10961 10961 10961 10961 10961 10961 10961 10961 10960 10961 10961 10960 10959 10957 10956 10955 10955 10953 10952 10950 10948 10946 10944 10942 10939 10937 10936 10934 10932 10930 10928 10926 10925 10923 10922 10920 10919 10918 10917 10917 10916 10915 10915 10915
10996 10996 10995 10995 10994 10993 10992 10991 10990 10989 10988 10986 10985 10983 10982 10981 10980 10979 10978 10977 10975 10973 10972 10971 10970 10969 10968 10968 10967 10966 10966 10965 10964 10964 10964 10963 10963 10963 10963 10963 10963 10963 10963 10963 10963 10962 10963 10963 10963 10962 10963 10962 10962 10961 10960 10958 10957 10957 10955 10954 10952 10950 10948 10946 10944 10941 10939 10937 10935 10934 10932 10930 10928 10927 10926 10924 10923 10922 10921 10920 10919 10919 10918 10918 10918
10998 10998 10997 10996 10996 10995 10994 10993 10992 10992 10990 10989 10988 10986 10985 10984 10983 10982 10981 10980 10978 10977 10976 10975 10974 10973 10971 10970 10970 10969 10968 10967 10966 10966 10965 10965 10965 10965 10965 10965 10965 10964 10964 10964 10964 10964 10964 10965 10965 10964 10964 10964 10964 10963 10962 10960 10959 10959 10957 10956 10954 10952 10950 10948 10946 10944 10942 10940 10938 10936 10934 10933 10931 10930 10929 10927 10926 10925 10924 10923 10922 10922 10921 10921 10921
11000 10999 10999 10999 10999 10998 10997 10996 10995 10994 10993 10992 10991 10990 10989 10988 10987 10985 10984 10983 10982 10981 10979 10978 10977 10976 10975 10973 10972 10971 10970 10969 10969 10968 10967 10967 10967 10966 10966 10967 10966 10966 10966 10966 10966 10966 10967 10967 10967 10967 10967 10966 10966 10965 10964 10963 10961 10961 10960 10958 10957 10955 10953 10951 10949 10947 10945 10943 10941 10939 10938 10936 10935 10933 10932 10931 10930 10929 10928 10927 10926 10925 10925 10925 10925
11002 11001 11001 11001 11001 11001 11000 10999 10998 10997 10996 10995 10994 10993 10992 10991 10990 10989 10987 10986 10985 10984 10983 10982 10980 10979 10978 10976 10975 10974 10973 10973 10972 10971 10970 10969 10969 10969 10969 10969 10969 10969 10969 10969 10969 10969 10970 10970 10970 10969 10969 10969 10968 10967 10966 10965 10964 10963 10963 10961 10960 10959 10957 10955 10953 10952 10950 10947 10945 10944 10942 10941 10939 10937 10936 10935 10934 10933 10932 10931 10930 10930 10929 10929 10928
11003 11003 11003 11003 11003 11003 11002 11001 11001 11000 10999 10998 10997 10997 10996 10995 10993 10992 10991 10989 10988 10987 10986 10985 10984 10983 10981 10980 10979 10978 10977 10976 10975 10974 10973 10972 10972 10972 10971 10971 10971 10971 10972 10972 10972 10972 10972 10973 10973 10972 10972 10971 10970 10969 10968 10967 10967 10966 10966 10965 10964 10963 10961 10959 10958 10956 10954 10952 10950 10949 10948 10946 10945 10943 10941 10940 10939 10938 10937 10936 10935 10934 10934 10933 10933
11005 11005 11005 11004 11004 11004 11004 11003 11003 11002 11001 11001 11000 10999 10999 10998 10997 10996 10994 10993 10992 10991 10989 10988 10987 10986 10985 10984 10982 10981 10980 10979 10979 10978 10977 10976 10975 10974 10974 10974 10974 10974 10975 10975 10975 10975 10975 10975 10975 10975 10974 10973 10973 10971 10970 10970 10970 10970 10969 10969 10968 10967 10965 10964 10962 10961 10959 10958 10956 10955 10953 10952 10951 10949 10947 10946 10945 10944 10943 10942 10940 10940 10939 10938 10937
11006 11006 11006 11006 11006 11006 11005 11005 11005 11004 11004 11003 11002 11002 11001 11000 10999 10999 10998 10997 10995 10994 10993 10991 10991 10990 10989 10987 10986 10985 10984 10983 10982 10981 10980 10979 10978 10978 10977 10977 10977 10977 10978 10978 10978 10978 10978 10978 10978 10977 10977 10976 10975 10974 10973 10973 10973 10973 10973 10973 10972 10971 10969 10968 10967 10965 10964 10963 10962 10961 10959 10958 10957 10956 10954 10952 10951 10951 10949 10948 10947 10946 10945 10944 10944
11007 11007 11007 11007 11007 11007 11007 11007 11006 11006 11006 11005 11005 11004 11003 11003 11002 11001 11000 11000 10999 10997 10996 10995 10994 10993 10992 10991 10990 10989 10987 10986 10985 10985 10984 10982 10982 10981 10980 10980 10980 10980 10980 10981 10981 10980 10980 10980 10980 10980 10979 10978 10978 10977 10977 10976 10976 10976 10976 10976 10975 10974 10973 10972 10971 10970 10969 10969 10968 10967 10965 10964 10963 10962 10961 10959 10958 10957 10956 10955 10954 10952 10951 10951 10950
11007 11007 11007 11008 11008 11008 11008 11008 11008 11008 11008 11007 11007 11006 11005 11005 11004 11004 11003 11002 11001 11000 10999 10998 10997 10996 10995 10994 10993 10992 10991 10989 10988 10987 10986 10986 10985 10984 10984 10983 10983 10983 10983 10983 10983 10983 10983 10983 10982 10982 10981 10981 10980 10980 10980 10980 10980 10980 10979 10979 10978 10978 10977 10976 10975 10974 10974 10973 10973 10972 10971 10970 10969 10968 10967 10966 10965 10964 10963 10961 10960 10959 10958 10958 10957
11007 11007 11008 11008 11008 11009 11009 11009 11009 11009 11009 11009 11008 11008 11008 11007 11007 11006 11005 11005 11004 11003 11002 11001 11000 10999 10998 10997 10996 10995 10994 10993 10991 10990 10989 10988 10988 10987 10987 10986 10986 10985 10985 10985 10985 10985 10985 10985 10985 10984 10984 10983 10983 10983 10983 10983 10983 10983 10983 10982 10982 10981 10981 10980 10979 10979 10978 10978 10977 10977 10976 10975 10974 10974 10973 10972 10971 10970 10969 10968 10967 10966 10965 10964 10962